| time (UTC) | temp C | wind direction | speed KPH | gust KPH | rain 1hr cm | rain 24hr cm | rain mn cm | humidity % | barometer mb |
| 20260507070027 | 13 | 360 | 1.6 | 4.8 | 0.08 | 0.69 | 0.33 | 94 | 1014.8 |
| 20260507064517 | 13 | 360 | 1.6 | 6.4 | 0.08 | 0.66 | 0.33 | 94 | 1014.7 |
| 20260507063012 | 13 | 360 | 3.2 | 14.5 | 0.05 | 0.64 | 0.30 | 93 | 1014.4 |
| 20260507061512 | 13 | 360 | 1.6 | 8.0 | 0.05 | 0.61 | 0.28 | 94 | 1014.4 |
| 20260507060013 | 13 | 360 | 0.0 | 4.8 | 0.15 | 0.61 | 0.25 | 95 | 1014.2 |
| 20260507054511 | 13 | 360 | 1.6 | 6.4 | 0.23 | 0.58 | 0.23 | 94 | 1014.0 |
| 20260507053007 | 13 | 360 | 0.0 | 8.0 | 0.23 | 0.58 | 0.23 | 93 | 1014.0 |
| 20260507051504 | 13 | 360 | 0.0 | 3.2 | 0.23 | 0.58 | 0.23 | 93 | 1013.9 |
| 20260507050010 | 13 | 360 | 1.6 | 4.8 | 0.05 | 0.41 | 0.05 | 91 | 1014.0 |
| 20260507044628 | 13 | 360 | 1.6 | 4.8 | 0.00 | 0.33 | 0.00 | 92 | 1013.4 |
| 20260507043058 | 12 | 360 | 1.6 | 6.4 | 0.00 | 0.33 | 0.00 | 95 | 1013.1 |
| 20260507041555 | 12 | 360 | 0.0 | 0.0 | 0.00 | 0.33 | 0.00 | 95 | 1012.9 |
| 20260507040058 | 12 | 360 | 0.0 | 1.6 | 0.00 | 0.33 | 0.00 | 95 | 1012.8 |
| 20260507034556 | 12 | 360 | 0.0 | 4.8 | 0.00 | 0.33 | 0.00 | 95 | 1012.5 |
| 20260507033104 | 12 | 360 | 0.0 | 0.0 | 0.00 | 0.33 | 0.00 | 95 | 1012.6 |
| 20260507031559 | 12 | 360 | 0.0 | 0.0 | 0.00 | 0.33 | 0.00 | 95 | 1012.6 |
| 20260507030106 | 13 | 360 | 1.6 | 6.4 | 0.00 | 0.33 | 0.00 | 95 | 1012.6 |
| 20260507024606 | 13 | 360 | 0.0 | 4.8 | 0.00 | 0.33 | 0.00 | 95 | 1012.5 |
| 20260507023048 | 13 | 360 | 0.0 | 0.0 | 0.00 | 0.33 | 0.00 | 95 | 1012.3 |
| 20260507021554 | 13 | 360 | 0.0 | 3.2 | 0.00 | 0.33 | 0.00 | 95 | 1012.4 |
| 20260507020056 | 12 | 360 | 0.0 | 1.6 | 0.00 | 0.33 | 0.00 | 95 | 1012.3 |
| 20260507014554 | 12 | 360 | 0.0 | 1.6 | 0.00 | 0.33 | 0.00 | 95 | 1012.3 |
| 20260507013045 | 13 | 360 | 0.0 | 3.2 | 0.00 | 0.33 | 0.00 | 95 | 1012.1 |
| 20260507011548 | 13 | 360 | 0.0 | 6.4 | 0.00 | 0.33 | 0.00 | 95 | 1012.1 |
| 20260507010046 | 13 | 360 | 0.0 | 0.0 | 0.00 | 0.33 | 0.00 | 95 | 1012.1 |
| 20260507004542 | 13 | 360 | 1.6 | 4.8 | 0.00 | 0.33 | 0.00 | 94 | 1012.0 |
| 20260507003040 | 13 | 360 | 0.0 | 0.0 | 0.00 | 0.33 | 0.00 | 95 | 1012.1 |
| 20260507001539 | 13 | 360 | 0.0 | 4.8 | 0.00 | 0.33 | 0.00 | 94 | 1012.0 |
| 20260507000037 | 13 | 360 | 1.6 | 4.8 | 0.00 | 0.33 | 0.00 | 94 | 1012.1 |
| 20260506234545 | 14 | 360 | 0.0 | 4.8 | 0.00 | 0.33 | 0.00 | 94 | 1012.0 |
| 20260506233032 | 14 | 360 | 0.0 | 6.4 | 0.00 | 0.33 | 0.00 | 94 | 1012.1 |
| 20260506231533 | 15 | 360 | 0.0 | 0.0 | 0.00 | 0.33 | 0.00 | 94 | 1012.2 |
| 20260506230028 | 15 | 360 | 0.0 | 0.0 | 0.00 | 0.33 | 0.00 | 95 | 1012.2 |
| 20260506224527 | 15 | 360 | 0.0 | 0.0 | 0.00 | 0.33 | 0.00 | 95 | 1012.1 |
| 20260506223026 | 15 | 360 | 0.0 | 0.0 | 0.00 | 0.33 | 0.00 | 96 | 1012.0 |
| 20260506221525 | 15 | 360 | 0.0 | 3.2 | 0.00 | 0.33 | 0.00 | 96 | 1012.2 |
| 20260506220023 | 15 | 360 | 0.0 | 0.0 | 0.00 | 0.33 | 0.00 | 96 | 1012.2 |
| 20260506214523 | 15 | 360 | 0.0 | 3.2 | 0.00 | 0.33 | 0.33 | 96 | 1012.3 |
| 20260506213022 | 15 | 360 | 0.0 | 3.2 | 0.00 | 0.33 | 0.33 | 95 | 1012.4 |
| 20260506211524 | 15 | 360 | 0.0 | 6.4 | 0.00 | 0.33 | 0.33 | 95 | 1012.4 |
| 20260506210026 | 15 | 360 | 3.2 | 6.4 | 0.00 | 0.33 | 0.33 | 95 | 1012.3 |
| 20260506204520 | 16 | 360 | 3.2 | 4.8 | 0.00 | 0.33 | 0.33 | 94 | 1012.3 |
| 20260506203023 | 16 | 360 | 0.0 | 1.6 | 0.00 | 0.33 | 0.33 | 94 | 1012.3 |
| 20260506201520 | 16 | 360 | 0.0 | 6.4 | 0.03 | 0.33 | 0.33 | 94 | 1012.4 |
| 20260506200019 | 16 | 360 | 3.2 | 6.4 | 0.05 | 0.33 | 0.33 | 94 | 1012.4 |
| 20260506194519 | 16 | 360 | 0.0 | 0.0 | 0.15 | 0.33 | 0.33 | 93 | 1012.3 |
| 20260506193018 | 16 | 360 | 0.0 | 0.0 | 0.15 | 0.33 | 0.33 | 93 | 1012.2 |
| 20260506191518 | 16 | 360 | 0.0 | 6.4 | 0.13 | 0.33 | 0.33 | 92 | 1012.1 |
| 20260506190018 | 16 | 360 | 1.6 | 6.4 | 0.23 | 0.30 | 0.30 | 91 | 1012.3 |
| 20260506184516 | 16 | 360 | 4.8 | 12.9 | 0.13 | 0.20 | 0.20 | 90 | 1012.4 |
| 20260506183015 | 17 | 360 | 0.0 | 9.7 | 0.13 | 0.20 | 0.20 | 91 | 1012.1 |
| 20260506181514 | 17 | 360 | 0.0 | 0.0 | 0.13 | 0.20 | 0.20 | 89 | 1011.0 |
| 20260506180014 | 17 | 360 | 0.0 | 0.0 | 0.00 | 0.08 | 0.08 | 88 | 1010.7 |
| 20260506174513 | 17 | 360 | 0.0 | 0.0 | 0.00 | 0.08 | 0.08 | 87 | 1010.2 |
| 20260506173018 | 18 | 360 | 0.0 | 0.0 | 0.00 | 0.08 | 0.08 | 87 | 1010.2 |
| 20260506171514 | 18 | 360 | 0.0 | 0.0 | 0.00 | 0.08 | 0.08 | 87 | 1010.1 |
| 20260506170011 | 18 | 360 | 0.0 | 3.2 | 0.05 | 0.08 | 0.08 | 86 | 1010.2 |
| 20260506164511 | 18 | 360 | 0.0 | 3.2 | 0.08 | 0.08 | 0.08 | 87 | 1010.0 |
| 20260506163014 | 18 | 360 | 0.0 | 3.2 | 0.08 | 0.08 | 0.08 | 86 | 1010.0 |
| 20260506161508 | 19 | 360 | 0.0 | 3.2 | 0.08 | 0.08 | 0.08 | 83 | 1009.9 |
| 20260506160010 | 21 | 360 | 3.2 | 6.4 | 0.05 | 0.05 | 0.05 | 73 | 1010.1 |
| 20260506154507 | 23 | 360 | 3.2 | 8.0 | 0.00 | 0.00 | 0.00 | 58 | 1009.8 |
| 20260506153007 | 24 | 360 | 0.0 | 0.0 | 0.00 | 0.00 | 0.00 | 55 | 1009.5 |
| 20260506151506 | 24 | 360 | 0.0 | 0.0 | 0.00 | 0.00 | 0.00 | 54 | 1009.5 |
| 20260506150005 | 24 | 360 | 0.0 | 3.2 | 0.00 | 0.00 | 0.00 | 53 | 1009.6 |
| 20260506144505 | 25 | 360 | 1.6 | 8.0 | 0.00 | 0.00 | 0.00 | 53 | 1009.6 |
| 20260506143002 | 25 | 360 | 3.2 | 12.9 | 0.00 | 0.00 | 0.00 | 51 | 1009.8 |
| 20260506141501 | 25 | 360 | 3.2 | 12.9 | 0.00 | 0.00 | 0.00 | 53 | 1009.8 |
| 20260506140059 | 25 | 360 | 6.4 | 14.5 | 0.00 | 0.00 | 0.00 | 52 | 1010.1 |
| 20260506134557 | 25 | 360 | 4.8 | 9.7 | 0.00 | 0.00 | 0.00 | 53 | 1010.3 |
| 20260506133057 | 25 | 360 | 3.2 | 9.7 | 0.00 | 0.00 | 0.00 | 51 | 1010.3 |
| 20260506131602 | 25 | 360 | 4.8 | 9.7 | 0.00 | 0.00 | 0.00 | 52 | 1010.5 |
| 20260506130121 | 25 | 360 | 8.0 | 14.5 | 0.00 | 0.00 | 0.00 | 51 | 1010.6 |
| 20260506124558 | 25 | 360 | 9.7 | 16.1 | 0.00 | 0.00 | 0.00 | 50 | 1010.7 |
| 20260506123050 | 25 | 360 | 3.2 | 12.9 | 0.00 | 0.00 | 0.00 | 51 | 1010.8 |
| 20260506121548 | 24 | 360 | 4.8 | 16.1 | 0.00 | 0.00 | 0.00 | 53 | 1011.1 |
| 20260506120047 | 23 | 360 | 4.8 | 19.3 | 0.00 | 0.00 | 0.00 | 51 | 1011.1 |
| 20260506114545 | 24 | 360 | 8.0 | 22.5 | 0.00 | 0.00 | 0.00 | 50 | 1011.4 |
| 20260506113051 | 24 | 360 | 6.4 | 20.9 | 0.00 | 0.00 | 0.00 | 51 | 1011.5 |
| 20260506111542 | 24 | 360 | 8.0 | 19.3 | 0.00 | 0.00 | 0.00 | 50 | 1011.8 |
| 20260506110050 | 24 | 360 | 9.7 | 22.5 | 0.00 | 0.00 | 0.00 | 51 | 1012.0 |
| 20260506104546 | 23 | 360 | 4.8 | 20.9 | 0.00 | 0.00 | 0.00 | 52 | 1012.1 |
| 20260506103044 | 23 | 360 | 4.8 | 19.3 | 0.00 | 0.00 | 0.00 | 52 | 1012.1 |
| 20260506101543 | 23 | 360 | 3.2 | 19.3 | 0.00 | 0.00 | 0.00 | 53 | 1012.4 |
| 20260506100039 | 23 | 360 | 8.0 | 17.7 | 0.00 | 0.00 | 0.00 | 55 | 1012.5 |
| 20260506094526 | 22 | 360 | 1.6 | 9.7 | 0.00 | 0.00 | 0.00 | 55 | 1012.6 |
| 20260506093035 | 22 | 360 | 6.4 | 16.1 | 0.00 | 0.00 | 0.00 | 56 | 1012.6 |
| 20260506091525 | 22 | 360 | 9.7 | 17.7 | 0.00 | 0.00 | 0.00 | 55 | 1012.8 |
| 20260506090022 | 22 | 360 | 1.6 | 14.5 | 0.00 | 0.00 | 0.00 | 56 | 1012.8 |
| 20260506084520 | 22 | 360 | 1.6 | 8.0 | 0.00 | 0.00 | 0.00 | 55 | 1013.0 |
| 20260506083016 | 21 | 360 | 1.6 | 12.9 | 0.00 | 0.00 | 0.00 | 60 | 1013.0 |
| 20260506081512 | 20 | 360 | 3.2 | 14.5 | 0.00 | 0.00 | 0.00 | 59 | 1013.0 |
| 20260506073011 | 18 | 360 | 9.7 | 19.3 | 0.00 | 0.00 | 0.00 | 61 | 1013.1 |
| 20260506071505 | 18 | 360 | 9.7 | 20.9 | 0.00 | 0.00 | 0.00 | 60 | 1013.0 |